Location: Zagreb
(45.8000°N, 16.0000°E)
Time: 03:05:05
(UTC+01:00)

Courier 1B - Pass Details

Date: 04 October 2020
Orbit: 963 x 1209 km, 28.3° (Epoch: 25 October)

Event Time Altitude Azimuth Distance (km) Brightness Sun altitude
Rises 21:18:35 0° 220° (SW) 4,064 10.9 -29.5°
Reaches altitude 10° 21:22:37 10° 201° (SSW) 3,125 10.1 -30.1°
Enters shadow 21:23:38 12° 195° (SSW) 2,951 9.9 -30.3°
